User: anonymous   Login
Location: Unspecified
(0.0000°N, 0.0000°E)
Time: 21:25:38
(UTC+00:00)
Language:

DNEPR OBJECT U - Orbit

View from above orbital plane
View from above orbital plane
View from above satellite
View from above satellite

Ground track
Ground track

The orbit data is extracted from the following two-line orbital elements,

1 39434U 13066U   18052.17044849  .00001442  00000-0  10935-3 0  9994
2 39434  97.6252 129.6307 0033752  40.8035 319.5777 15.03400307232227
Epoch (UTC): 21 February 2018 04:05:26
Eccentricity: 0.0033752
inclination: 97.6252°
perigee height: 533 km
apogee height: 580 km
right ascension of ascending node: 129.6307°
argument of perigee: 40.8035°
revolutions per day: 15.03400307
mean anomaly at epoch: 319.5777°
orbit number at epoch: 23222

The dashed part of the orbit path shows where the satellite is in the earth's shadow,  

DLR